Regional Weather Roundup
Issued by NWS

Home | Current Version | Previous Version | Graphics & Text | Print | Product List | Glossary Off
Versions: 1 2 3 4 5 6 7 8 9 10 11 12 13 14 15 16 17 18 19 20 21 22 23 24 25 26 27 28 29 30 31 32 33 34 35 36 37 38 39 40 41 42 43 44 45 46 47 48 49 50

000
ASUS43 KMKX 282321
RWRWI

WISCONSIN REGIONAL WEATHER ROUNDUP
NATIONAL WEATHER SERVICE MILWAUKEE/SULLIVAN WI
500 PM CST WED JAN 28 2015

NOTE: "FAIR" INDICATES FEW OR NO CLOUDS BELOW 12,000 FEET WITH NO
SIGNIFICANT WEATHER AND/OR OBSTRUCTIONS TO VISIBILITY.

WIZ001-002-006>008-014>016-023>028-290000-
NORTHWEST WISCONSIN

CITY           SKY/WX    TMP DP  RH WIND       PRES   REMARKS
SUPERIOR ARPT  CLOUDY    32  25  76 SW7       29.84S WCI  25
ASHLAND        CLOUDY    32  23  69 S8        29.83F WCI  25
HAYWARD        CLOUDY    28  22  78 S8        29.82S HAZE    WCI  20
SIREN          CLOUDY    31  25  80 SE3       29.83S HAZE
CUMBERLAND     CLOUDY    28  25  86 SE10      29.81S FOG     WCI  19
RICE LAKE      CLOUDY    29  24  82 SE10      29.84S WCI  20
CHETEK         CLOUDY    29  24  83 E8        29.83S HAZE    WCI  21
LADYSMITH      CLOUDY    28  24  85 SE8       29.84F FOG     WCI  20
EAU CLAIRE     MOCLDY    29  23  78 SE9       29.83S WCI  20
MENOMONIE      CLOUDY    31  27  83 E8        29.83S HAZE    WCI  24
NEW RICHMOND   CLOUDY    31  26  83 SE6       29.82S FOG     WCI  25
OSCEOLA        CLOUDY    31  27  86 SE7       29.84F FOG     WCI  24
$$

WIZ003>005-009-010-017-018-290000-
NORTH CENTRAL WISCONSIN

CITY           SKY/WX    TMP DP  RH WIND       PRES   REMARKS
MANITOWISH WTR CLOUDY    28  22  76 SE7       29.83F WCI  21
ARBOR VITAE    CLOUDY    32  25  75 SE9       29.84F WCI  24
WOODRUFF       CLOUDY    32  25  75 SE9       29.84F WCI  24
RHINELANDER    CLOUDY    27  19  72 SE9       29.87F WCI  18
EAGLE RIVER    CLOUDY    28  19  69 S8        29.86F WCI  20
LAND O LAKES   CLOUDY    29  21  71 S9        29.86F WCI  21
PHILLIPS       MOCLDY    27  22  79 SE8       29.81F WCI  19
TOMAHAWK       CLOUDY    28  21  75 SE5       29.86F WCI  22
MEDFORD        CLOUDY    26  22  85 SE9       29.83F WCI  16
MERRILL        CLOUDY    28  22  76 SE13      29.87F WCI  18
$$

WIZ029-030-035-036-043>047-290000-
CENTRAL WISCONSIN

CITY           SKY/WX    TMP DP  RH WIND       PRES   REMARKS
WAUSAU         CLOUDY    28  20  71 SE10      29.87F WCI  19
MOSINEE        CLEAR     28  23  80 E10       29.89F WCI  19
MARSHFIELD     MOCLDY    27  22  81 SE12      29.86F HAZE    WCI  17
STEVENS POINT  CLOUDY    27  20  73 E10       29.90F WCI  18
WAUPACA        CLOUDY    32  22  66 E7        29.94F WCI  25
WAUTOMA        CLOUDY    30  21  69 SE7       29.93F WCI  23
WISC RAPIDS    CLOUDY    30  20  66 SE10      29.90F WCI  21
CAMP DOUGLAS   MOCLDY    30  27  86 SE13G22   29.85F WCI  20
$$

WIZ011>013-019>022-031-037>040-048>050-290000-
NORTHEAST WISCONSIN

CITY           SKY/WX    TMP DP  RH WIND       PRES   REMARKS
ANTIGO         CLOUDY    26  21  82 SE15      29.90F WCI  13
SHAWANO        MOCLDY    31  22  68 SE3       29.96F
OCONTO         CLOUDY    29  24  82 SE7       30.00F WCI  22
STURGEON BAY   CLOUDY    30  23  74 S15G21    30.02F WCI  19
GREEN BAY      MOCLDY    30  23  75 SE12      29.99F WCI  20
MANITOWOC      CLOUDY    32  27  81 S21G28    30.02F WCI  20
APPLETON       CLOUDY    30  21  69 SE8       29.97F WCI  23
CLINTONVILLE   MOCLDY    30  21  69 SE6       29.95F WCI  24
OSHKOSH        CLOUDY    31  22  69 SE12      29.95F WCI  22
$$

WIZ032>034-041-042-053>061-290000-
SOUTHWEST WISCONSIN

CITY           SKY/WX    TMP DP  RH WIND       PRES   REMARKS
LA CROSSE      CLOUDY    36  23  59 SE16      29.82F WCI  26
SPARTA         MOCLDY    32  23  69 SE8       29.85F WCI  25
VIROQUA        CLOUDY    32  23  70 SE15G23   29.80F WCI  21
BOSCOBEL       MOCLDY    34  22  61 VRB7      29.87F WCI  28
PRAIRIE DU CHI MOCLDY    34  23  64 SE9G18    29.83F WCI  26
PLATTEVILLE    MOCLDY    32  26  77 SE20      29.86F WCI  20
$$

WIZ056-057-062-063-064-067-068-290000-
SOUTH CENTRAL WISCONSIN

CITY           SKY/WX    TMP DP  RH WIND       PRES   REMARKS
REEDSBURG      MOCLDY    31  22  69 SE7       29.88F WCI  24
BARABOO/DELLS  MOCLDY    31  22  70 SE10      29.88F WCI  22
LONE ROCK      MOCLDY    33  22  63 SE9       29.89F WCI  25
MINERAL POINT  MOCLDY    32  27  80 SE15G21   29.86F WCI  22
MADISON        CLOUDY    31  21  66 SE17      29.91F WCI  19
MIDDLETON      MOCLDY    32  22  66 SE17      29.90F WCI  21
WATERTOWN      MOCLDY    32  20  62 SE9       29.94F WCI  24
MONROE         PTCLDY    32  27  80 SE21G26   29.90F WCI  20
JANESVILLE     CLEAR     34  25  69 SE12G17   29.95F WCI  25
$$

WIZ051-052-058>065-066-070>072-290000-
SOUTHEAST WISCONSIN

CITY           SKY/WX    TMP DP  RH WIND       PRES   REMARKS
MILWAUKEE      MOCLDY    32  20  61 S20       30.01F WCI  20
WAUKESHA         N/A     32  18  55 SE12G20   29.99F WCI  23
MILWAUKEE/TIMM CLEAR     32  19  59 SE13      30.01F WCI  22
RACINE         MOCLDY    32  21  64 S17G29    30.03F WCI  21
BURLINGTON     MOCLDY    31  19  60 SE8       29.99F WCI  24
KENOSHA        PTCLDY    32  22  66 SE17      30.01F WCI  21
FOND DU LAC    MOCLDY    31  21  66 SE12      29.95F WCI  22
SHEBOYGAN      MOCLDY    31  22  69 SE12G22   30.01F WCI  22
WEST BEND      MOCLDY    30  19  64 SE9G17    29.98F WCI  22
JUNEAU         CLOUDY    31  20  62 SE12      29.96F WCI  22
$$

LSZ147-162-290000-
LAKE SUPERIOR

STATION/POSITION TIME  TEMP    WIND        PRES    WAVE
                       AIR SEA DIR/SP/G            HT/PER
                 (UTC) (F)     (DEG/KT/KT) (MB)    (FT/S)
DEVILS ISLAND    2300   31     110/  8/  8 1011.2F
PORT WING        2200   30      30/  5/  8 1010.8
SAXON HARBOR     2240   35        CALM     1010.2F
$$

LMZ867-665-643>646-290000-
LAKE MICHIGAN

STATION/POSITION TIME  TEMP    WIND        PRES    WAVE
                       AIR SEA DIR/SP/G            HT/PER
                 (UTC) (F)     (DEG/KT/KT) (MB)    (FT/S)
NORTHPORT PIER   2309   32     160/ 10/ 19 1016.6F
SISTER BAY       2113   32     170/ 12/ 15   N/A
KEWAUNEE LAKESHO 2200                      1016.8F
SHEBOYGAN LAKESH 2300   33     150/ 28/ 30 1017.2F
PORT WASHINGTON  2221   33     170/ 20/ 26 1017.6F
MILWAUKEE LAKESH 2300   33     160/ 22/ 26   N/A
KENOSHA   LAKESH 2300   33     160/ 27/ 29 1016.3F
$$

TC  - TEMPERATURE IN CELSIUS
VSB - VISIBILITY IN STATUTE MILES
WCI - WIND CHILL INDEX
HX  - HEAT INDEX




USA.gov is the U.S. government's official web portal to all federal, state and local government web resources and services.